STARLINK-31528, 59010

Orbit data source: Space-Track

STARLINK-31528, 59010 is a payload satellite owned by SpaceX/Seattle (US) in LEO that was launched on Fri, 23 Feb 2024 UTC via an FALCON 9 launch vehicle from the Air Force Western Test Range (AFWTR). Payload-class satellites include a variety of spacecraft equipped with specific instruments for various scientific and technological missions. These include communications satellites like Starlink; space stations such as the ISS; scientific satellites like the Hubble; Earth observation satellites from companies like Planet Labs, Umbra, and HawkEye 360; GPS; miniature CubeSats for education and research; and military/defense satellites.

Loading next visibility...
Identifier
59010, 2024-036N
Orbit
LEO
Country
Flag of USUS
Related business
Manufacturer
SpaceX/Seattle
Mission
Operational Commercial Communications
Bus & Motor
STARLINK V2M, Unknown motor
Mass
730 kg wet, ~700 kg dry
Launch date (UTC)
2024-02-23 (2 years ago)
Launch vehicle
FALCON 9
Launch site
Air Force Western Test Range (AFWTR)
Object type
Payload
Rocket body
Debris
Shape & HBR
Box + 2 Pan, 17.7 m
Radar Cross Section
33.884 m², Large (>1 m²)

Expand to show TLE details & history
Last TLE update: 2 days ago

TLE from 2 days ago
0 STARLINK-31528
1 59010U 24036N   26171.13969960 -.00001328  00000-0 -32739-4 0  9994
2 59010  53.1614 322.6287 0001123  93.4865 266.6264 15.30181033131001
Epoch: 2026-06-20T03:21Z
TLE epoch observation values (Epoch: 2026-06-20T03:21:10.045Z)
Latitude
-0.00004°
Longitude
3.97821°
Altitude
476.217 km
Speed
7.629 km/s
True Right ascension
21h 30m 30s
True Declination
0° 00' 00"
Sunlit
Object was in full shadow at epoch
Visualization orbit readout
Latitude
Unknown
Longitude
Unknown
Altitude
Unknown
Speed
Unknown
Apparent Right ascension
Unknown
Apparent Declination
Unknown
Sunlit
N/A
Visualization observer readout
Local Sidereal Time
21:23:31
Azimuth
Unknown
Elevation
Unknown
Doppler factor
Unknown
Orbital elements
Apogee altitude
476.298 km
Perigee altitude
474.758 km
Semi-major axis
6,853.665 km
Eccentricity
0.00011
Inclination
53.1614°
RAAN
322.6287°
Arg. of periapsis
93.4865°
True anomaly
266.61355°
Mean anomaly
266.6264°
Eccentric anomaly
266.61998°
Mean motion
3.82524 °/min
Orbital period
94.11 mins
BSTAR
-0.000032739
Loading maneuver chart data...
Computing Atmospheric mass density...
Loading historical data...
Loading historical data...
Loading historical data...
Loading historical data...
Loading historical data...
Loading historical data...
Loading historical data...

Documentation

Showing up to 5 results
|